Showing default

HULIANWANG DIGUI-49, 65106

Orbit data source: Space-Track

HULIANWANG DIGUI-49, 65106 is a payload satellite owned by Zhongguo Xingwang (CN) in LEO that was launched on Mon, 04 Aug 2025 UTC via a CHANG ZHENG 12 launch vehicle from the Wenchang Satellite Launch Center (WSC). Payload-class satellites include a variety of spacecraft equipped with specific instruments for various scientific and technological missions. These include communications satellites like Starlink; space stations such as the ISS; scientific satellites like the Hubble; Earth observation satellites from companies like Planet Labs, Umbra, and HawkEye 360; GPS; miniature CubeSats for education and research; and military/defense satellites.

Loading next visibility...
Identifier
65106, 2025-168A
Orbit
LEO
Country
Flag of CNCN / PRC
Related business
Manufacturer
YINNT
Mission
Operational Civil Communications
Bus & Motor
XINGWANG Y, Unknown motor
Mass
~800 kg wet, ~800 kg dry
Launch date (UTC)
2025-08-04 (11 months ago)
Launch vehicle
CHANG ZHENG 12
Launch site
Wenchang Satellite Launch Center (WSC)
Object type
Payload
Rocket body
Debris
Shape & HBR
Box + 2 Pan, 2.0 m
Radar Cross Section
5.935 m², Large (>1 m²)

Expand to show TLE details & history
Last TLE update: 10 hours ago

TLE from 10 hours ago
0 HULIANWANG DIGUI-49
1 65106U 25168A   26171.46933700 -.00000087  00000-0  78905-4 0  9998
2 65106  50.0042 314.1945 0008529 114.8188 245.3572 13.29320086 43125
Epoch: 2026-06-20T11:15Z
TLE epoch observation values (Epoch: 2026-06-20T11:15:50.716Z)
Latitude
-0.00003°
Longitude
-123.45035°
Altitude
1,152.517 km
Speed
7.277 km/s
True Right ascension
20h 56m 46s
True Declination
0° 00' 00"
Sunlit
Object was in full shadow at epoch
Visualization orbit readout
Latitude
Unknown
Longitude
Unknown
Altitude
Unknown
Speed
Unknown
Apparent Right ascension
Unknown
Apparent Declination
Unknown
Sunlit
N/A
Visualization observer readout
Local Sidereal Time
08:41:38
Azimuth
Unknown
Elevation
Unknown
Doppler factor
Unknown
Orbital elements
Apogee altitude
1,156.454 km
Perigee altitude
1,143.613 km
Semi-major axis
7,528.171 km
Eccentricity
0.00085
Inclination
50.0042°
RAAN
314.1945°
Arg. of periapsis
114.8188°
True anomaly
245.26841°
Mean anomaly
245.3572°
Eccentric anomaly
245.3128°
Mean motion
3.32284 °/min
Orbital period
108.34 mins
BSTAR
0.000078905
Loading maneuver chart data...
Computing Atmospheric mass density...
Loading historical data...
Loading historical data...
Loading historical data...
Loading historical data...
Loading historical data...
Loading historical data...
Loading historical data...

Documentation

Showing up to 5 results
|